Location: Mauna Kea VIS
(19.7591°N, 155.4561°W)
Time: 12:31:29
(UTC-10:00)

Daily predictions for brighter satellites

Satellite Brightness Start Highest point End
(mag) Time Altitude Azimuth Time Altitude Azimuth Time Altitude Azimuth
H-2A R/B 4.0 18:17:05 10° WNW 18:21:16 73° SSW 18:50:51 10° ESE
Meteosat 1 Rocket2 4.1 18:27:18 10° WSW 18:35:15 65° SSE 18:40:22 10° ENE
Meteor 1-22 Rocket 4.2 18:30:07 10° S 18:35:30 58° E 18:40:43 10° NNE
Meteor 1-28 Rocket 3.2 18:33:38 10° NNE 18:37:15 55° E 18:40:53 10° S
Cosmos-2242 4.5 18:37:39 10° SE 18:40:22 16° E 18:43:05 10° NE
ISS -1.9 18:38:27 10° S 18:40:59 21° SE 18:43:30 10° ENE
Cosmos 1707 3.0 18:37:57 10° N 18:41:39 45° E 18:45:19 10° SSE
FUSE 4.1 18:43:06 10° W 18:48:27 71° NNW 18:53:38 11° ENE
SAR-Lupe-4 3.9 18:45:20 10° SSE 18:48:41 41° ENE 18:52:02 10° N
VEP-3 3.9 18:42:41 10° WSW 18:48:54 69° SSE 19:14:54 10° ENE
Centaur AC-146 1.0 18:47:22 10° W 18:49:09 54° S 18:51:49 12° ESE
Cosmos 192 4.3 18:46:48 10° S 18:51:43 78° ESE 18:56:40 10° NNE
Cosmos 2278 Rocket 2.4 18:46:21 10° N 18:51:49 50° ENE 18:57:15 10° SE
Meteor 2-5 Rocket 3.7 18:49:27 10° N 18:55:02 88° E 19:00:33 10° S
Helios 1B rocket 2.5 18:51:14 10° NNE 18:55:14 52° E 18:59:14 10° S
Resurs 01 Rocket 2.8 18:52:56 10° SE 18:56:25 23° ENE 18:59:55 10° NNE
Meteor 1-24 Rocket 3.8 18:53:28 10° N 18:58:46 47° E 19:03:53 10° SSE
Elektron 1 4.3 18:54:34 10° SSW 18:58:54 50° ESE 19:01:44 10° NE
Cosmos 1484 Rocket 3.1 18:55:33 10° S 18:59:16 68° W 19:03:03 10° NNW
Delta 168 3.9 18:56:50 10° W 19:01:25 64° N 19:07:22 14° ENE
Cosmos 1603 3.9 18:56:23 10° S 19:01:49 47° ESE 19:07:16 10° NNE
Ariane H10-3 4.2 19:06:44 10° SW 19:08:19 11° SSW 19:09:31 10° S
GPS 2-04 Rocket1 3.7 19:05:11 10° W 19:08:25 36° NNW 19:11:26 12° NE
SeaSat 1 2.8 19:04:02 10° NE 19:08:39 40° ESE 19:13:14 10° S
Okean 3 Rocket 3.5 19:04:52 10° N 19:09:23 71° E 19:13:53 10° S
Abrixas rocket 2.5 19:07:20 10° NNW 19:10:34 47° NE 19:11:52 29° ESE
FREGAT/IRIS 2.6 19:08:29 10° SSE 19:11:31 56° ENE 19:14:33 10° N
ATLAS CENTAUR R/B 2.0 19:14:20 10° N 19:17:46 28° ENE 19:17:58 28° ENE
Centaur Rocket 4.3 19:15:18 10° W 19:19:10 59° S 19:26:14 21° ESE
Cosmos 1437 2.9 19:16:09 10° N 19:19:24 73° W 19:22:38 10° S
ALOS 3.4 19:21:42 23° ENE 19:21:42 23° ENE 19:24:44 10° NNE
XTE 4.4 19:22:44 10° W 19:25:25 28° SSW 19:26:08 25° S
Cosmos 1269 Rocket 3.9 19:23:24 10° S 19:28:35 61° ESE 19:33:47 10° NNE
Helios 1A 2.9 19:29:23 26° SE 19:31:31 57° ENE 19:35:36 10° N
GPS 2-12 Rocket1 3.1 19:27:28 10° WSW 19:31:49 56° SSE 19:32:50 44° ESE
Intelsat 5-2 Rocket 3.5 19:24:48 10° W 19:32:40 58° NNW 19:33:55 37° NE
Atlas Centaur 2 3.5 19:24:56 10° WNW 19:33:07 48° NNE 19:36:57 28° ENE
Spot 2 Rocket 3.3 19:28:42 10° SSE 19:33:42 72° ENE 19:38:43 10° N
Cosmos 1048 Rocket 4.0 19:29:43 10° S 19:34:58 59° ESE 19:40:10 10° NNE
Cosmos 1953 2.6 19:32:15 10° SSW 19:36:13 66° W 19:40:10 10° N
SWIFT 2.2 19:35:44 10° W 19:39:56 78° S 19:40:29 65° SE
In-Cosmos 22 4.2 19:37:28 10° N 19:43:11 63° E 19:47:01 21° SSE
HJ-1C 4.0 19:45:49 41° SSW 19:46:40 55° W 19:49:57 10° NNW
Centaur D-1A AC-32 1.9 19:43:58 10° WNW 19:47:11 77° SSW 19:47:30 69° SE
Cosmos 2056 Rocket 3.8 19:43:26 10° NNW 19:48:49 71° WSW 19:54:10 10° S
Yuri Rocket 2.7 19:45:30 10° WNW 19:49:39 89° NNE 19:49:41 88° E
ATLAS V CENTAUR R/B 4.3 19:46:50 10° W 19:50:38 78° S 19:55:51 35° E
ATLAS 5 CENTAUR R/B 4.4 19:48:50 10° W 19:51:59 18° WNW 19:55:15 10° NNW
Cosmos 1174 4.3 19:46:08 10° SSW 19:51:59 64° ESE 19:52:05 64° ESE
Tiangong 2 2.9 19:49:41 10° WNW 19:52:03 29° WSW 19:52:03 29° WSW
Nadezhda 4 Rocket 4.1 19:46:57 10° N 19:52:46 49° ENE 19:52:46 49° ENE
GPS 2-05 Rocket1 4.1 19:51:47 10° NW 19:53:59 37° NW 19:53:59 37° NW
ASTEX 1 3.2 19:51:38 10° N 19:56:32 85° E 20:01:24 10° S
Gbstr 26 Del rocket 3.6 19:53:51 10° SW 19:57:52 54° NW 19:59:05 41° N
ASC 2 Rocket 3.7 20:00:07 10° WNW 20:03:13 44° NW 20:03:13 44° NW
Cosmos 1766 Rocket 4.0 19:59:58 10° NNW 20:04:13 59° W 20:04:38 56° WSW
CENTAUR R/B 2.4 20:02:05 10° SSW 20:07:49 77° WNW 20:11:06 29° NNE
ISS -0.1 20:15:22 10° W 20:16:32 14° WNW 20:16:32 14° WNW
FENGYUN 3A 4.3 20:30:10 52° WNW 20:30:10 52° WNW 20:34:48 10° NNW
Resurs 01 Rocket 4.2 20:29:38 10° SW 20:32:42 18° W 20:35:47 10° NW
Mugunghwa Rocket 4.3 20:28:37 10° WSW 20:34:59 73° SW 20:34:59 73° SW
Cosmos 1943 4.4 20:38:11 10° SW 20:42:13 37° WSW 20:42:13 37° WSW
Atlas Centaur 2 4.2 21:15:16 10° WNW 21:19:36 34° WNW 21:19:36 34° WNW
